Welcome to the New NWS' Forecast!
Most changes are behind the scenes, but click here for differences you might notice.
Latest weather observations around

Fort Smith, Fort Smith Regional Airport (KFSM)

Using English Units (Switch to International System of Units)
Date/ Time (CDT) Wind (mph) Vis. (mi) Weather Sky Cond. Temp (°F) Rel. Humidity Wind Chill (°F) Heat Index (°F) Pressure Precip. (in)
Air Dwpt 6 hour Altimeter (inHg) Sea level (inHg) 1 hr 3 hr 6 hr
Max Min
Jun 25 00:53 Calm 10 Cloudy OVC120 73 62     68%   73 30.22 30.2      
Jun 24 23:53 NE 6 10 Cloudy OVC120 73 63     71%   73 30.21 30.2      
Jun 24 22:53 E 3 10 Cloudy OVC120 74 64     71%   74 30.2 30.18      
Jun 24 21:53 E 3 10 Cloudy OVC120 76 63     64%   76 30.18 30.16      
Jun 24 20:53 5 10 Cloudy OVC120 77 61     58%   77 30.16 30.14      
Jun 24 19:53 E 6 10 Partly Cloudy SCT110 79 61     54%   79 30.14 30.12      
Jun 24 18:53 NE 10 10 Clear CLR 82 58     44%   82 30.13 30.11      
Jun 24 17:53 7 10 Clear CLR 81 58     45%   81 30.12 30.1      
Jun 24 16:53 10 10 Clear CLR 82 58     44%   82 30.12 30.11      
Jun 24 15:53 N 14 10 Clear CLR 83 56     40%   82 30.13 30.11      
Jun 24 14:53 8 10 Clear CLR 84 56     38%   83 30.15 30.13      
Jun 24 13:53 NE 6 10 Clear CLR 83 59     44%   83 30.16 30.15      
Jun 24 12:53 NE 7 10 Clear CLR 80 56     44%   80 30.18 30.16      
Jun 24 11:53 E 7 10 Clear CLR 78 59     52%   78 30.19 30.17      
Jun 24 10:53 E 6 10 Clear CLR 76 60     58%   76 30.18 30.16      
Jun 24 09:53 Calm 10 Mostly Cloudy BKN110 74 61     64%   74 30.18 30.16      
Jun 24 08:53 E 3 10 Mostly Clear FEW120 72 61     68%   72 30.16 30.14      
Jun 24 07:53 E 5 10 Clear CLR 71 62     73%   71 30.15 30.13      
Jun 24 06:53 Calm 10 Clear CLR 71 66     84%   72 30.13 30.11      
Jun 24 05:53 E 3 10 Clear CLR 70 65     84%     30.1 30.09      
Jun 24 04:53 6 10 Clear CLR 71 61     70%   71 30.08 30.06      
Jun 24 02:53 Calm 10 Clear CLR 71 70     96%   72 30.03 30.01      
Jun 24 01:53 Calm 10 Clear CLR 72 70     93%   73 30.03 30.01      
Jun 24 00:53 Calm 10 Clear CLR 72 69     91%   73 30.03 30.01      
Jun 23 23:53 Calm 10 Clear CLR 73 70     90%   74 30.02 30      
Jun 23 22:53 5 10 Clear CLR 74 70     87%   75 30 29.98      
Jun 23 21:53 E 5 10 Clear CLR 75 71     88%   76 29.96 29.95      
Jun 23 21:06 E 8 10 Cloudy SCT024 OVC035 77 71     82%   78 29.96        
Jun 23 20:53 E 8 10 Cloudy BKN025 OVC033 77 71     82%   78 29.95 29.93      
Jun 23 20:19 8 10 Cloudy BKN029 OVC050 78 71     79%   79 29.94        
Jun 23 19:53 E 8 10 Cloudy SCT026 OVC055 79 71     77%   82 29.92 29.9      
Jun 23 19:45 E 9 10 Cloudy FEW026 OVC055 79 71     77%   82 29.91        
Jun 23 18:53 8 10 Cloudy BKN021 OVC026 80 72     76%   84 29.89 29.87     0
Jun 23 18:39 E 10 10 Mostly Cloudy BKN022 BKN045 80 73     79%   84 29.88        
Jun 23 17:53 15 10 Partly Cloudy SCT042 81 72     74%   85 29.85 29.84      
Jun 23 16:53 N 13 10 Mostly Clear FEW028 FEW044 83 75     77%   90 29.84 29.82 0    
Jun 23 16:35 N 14 10 Mostly Cloudy FEW021 SCT028 BKN044 82 76     82%   89 29.83   0    
Jun 23 16:30 N 17 4 Thunderstorms and Rain FEW021 SCT028 BKN044 82 76     82%   89 29.82   0    
Jun 23 16:28   1.75 Thunderstorms and Rain SCT025 BKN041 BKN048 82 77     85%   90 29.82   0    
Jun 23 16:22 NE 11 1 Thunderstorms and Heavy Rain SCT023 BKN041 BKN049 83 77     82%   92 29.8   0    
Jun 23 16:18 NNW 11 1.5 Thunderstorms and Rain FEW025 SCT041 BKN049 88 76     68%   99 29.81   0    
Jun 23 16:16   5 Thunderstorms and Haze SCT038 BKN049 BKN060 90 76     64%   102 29.81   0    
Jun 23 15:53 15 10 Partly Cloudy FEW042 SCT048 SCT060 93 75     56%   105 29.79 29.77      
Jun 23 14:53 W 13 10 Clear CLR 94 76     56%   107 29.79 29.77      
Jun 23 13:53 13 10 Partly Cloudy SCT070 92 74     56%   102 29.79 29.77      
Jun 23 12:53 W 10 10 Mostly Cloudy SCT034 BKN055 90 76     64%   102 29.8 29.78      
Jun 23 11:53 W 9 10 Mostly Cloudy SCT025 BKN034 89 75     63%   99 29.79 29.77      
Jun 23 10:53 8 10 Mostly Cloudy FEW018 BKN046 BKN065 84 76     77%   93 29.8 29.78      
Jun 23 09:53 8 10 Mostly Cloudy BKN045 BKN050 80 75     85%   85 29.8 29.78      
Jun 23 09:45 W 6 10 Mostly Cloudy BKN045 80 75     85%   85 29.8        
Jun 23 08:53 5 4 Fog/Mist OVC006 77 75     94%   79 29.78 29.77      
Jun 23 08:49 6 4 Fog/Mist OVC005 77 75     94%   79 29.78        
Jun 23 08:05 3 3 Fog/Mist OVC002 75 75     100%   77 29.75        
Jun 23 07:53 Calm 0.5 Fog OVC002 75 75     100%   77 29.74 29.72      
Jun 23 07:42 5 1.75 Fog/Mist OVC002 75 74     96%   77 29.74        
Jun 23 07:33 5 0.25 Fog OVC002 75 75     100%   77 29.74        
Jun 23 07:25 W 5 1 Fog/Mist VV002 75 74     96%   77 29.74        
Jun 23 07:06 W 6 0.25 Fog VV002 75 74     96%   77 29.73        
Jun 23 06:53 W 5 0.25 Fog VV002 75 74     96%   77 29.72 29.7      
Jun 23 06:36 W 5 0.5 Fog VV002 74 74     100%   76 29.71        
Jun 23 06:24 7 0.5 Fog VV002 74 74     100%   76 29.7        
Jun 23 06:08 W 6 1 Fog/Mist OVC002 74 74     100%   76 29.7        
Jun 23 05:53 W 6 5 Fog/Mist BKN002 74 73     97%   76 29.69 29.67      
Jun 23 05:50 W 6 5 Fog/Mist BKN002 73 73     100%   75 29.69        
Jun 23 05:37 3 9 Mostly Clear FEW003 73 72     96%   75 29.68        
Jun 23 04:53 W 5 10 Clear CLR 74 73     97%   76 29.68 29.66      
Jun 23 03:53 3 10 Clear CLR 74 73     97%   76 29.69 29.67      
Jun 23 02:53 Calm 10 Clear CLR 74 73     97%   76 29.7 29.68      
Jun 23 01:53 Calm 10 Clear CLR 75 73     94%   77 29.7 29.68      
Jun 23 00:53 Calm 10 Clear CLR 77 74     90%   79 29.69 29.67      
Jun 22 23:53 E 3 10 Clear CLR 77 74     90%   79 29.67 29.65      
Jun 22 22:53 5 10 Clear CLR 78 74     87%   80 29.69 29.67      
Jun 22 22:30 7 10 Partly Cloudy SCT024 78 74     87%   80 29.69        
Notice The following observation data may not be complete
Jun 22 22:12   10 Mostly Cloudy BKN023          %              
Jun 22 21:53 NE 7 10 Clear CLR 79 75     88%   83 29.68 29.66      
Jun 22 20:53 E 7 10 Clear CLR 79 74     85%   83 29.65 29.63      
Jun 22 19:53 E 9 10 Clear CLR 82 74     77%   88 29.64 29.62      
Jun 22 18:53 8 10 Mostly Clear FEW048 84 71     65%   89 29.64 29.62      
Jun 22 17:53 E 8 10 Partly Cloudy FEW031 FEW035 SCT070 87 75     68%   97 29.64 29.62      
Jun 22 16:53 E 10 10 Mostly Clear FEW036 FEW070 87 75     68%   97 29.65 29.63      
Jun 22 15:53 7 10 Mostly Clear FEW032 FEW050 87 74     65%   95 29.67 29.65      
Jun 22 15:30 E 9 10 Partly Cloudy SCT029 SCT049 86 74     67%   94 29.68        
Jun 22 15:23 E 11 10 Mostly Cloudy BKN029 BKN049 85 73     68%   92 29.68        
Jun 22 14:53 9 10 Mostly Clear FEW027 85 74     70%   92 29.68 29.66      
Jun 22 14:32 E 7 10 Mostly Cloudy SCT027 BKN036 85 74     70%   92 29.68        
Jun 22 14:08 E 10 10 Mostly Cloudy BKN027 85 73     68%   92 29.69        
Jun 22 13:53 6 10 Mostly Cloudy SCT027 BKN047 86 74     67%   94 29.7 29.68      
Jun 22 12:53 7 10 Mostly Cloudy BKN037 83 74     74%   89 29.73 29.71      
Jun 22 12:32 E 7 10 Cloudy FEW020 SCT025 OVC032 82 74     77%   88 29.74        
Jun 22 11:53 E 11 10 Mostly Cloudy FEW010 BKN018 BKN037 82 74     77%   88 29.74 29.72      
Jun 22 10:53 E 11 10 Mostly Cloudy FEW010 BKN018 BKN037 81 74     79%   86 29.76 29.74      
Jun 22 10:48 E 10 10 Mostly Cloudy FEW009 BKN013 BKN019 81 73     79%   85 29.76        
Jun 22 09:53 11 10 Cloudy OVC013 79 74     85%   83 29.77 29.75      
Jun 22 08:53 8 10 Cloudy OVC010 77 73     88%   79 29.78 29.76      
Jun 22 08:50 9 10 Cloudy OVC010 77 73     89%   79 29.78        
Jun 22 07:53 9 10 Cloudy OVC008 75 73     94%   77 29.79 29.77      
Jun 22 06:53 10 10 Cloudy OVC006 74 73     97%   76 29.78 29.76     0
Jun 22 05:53 8 10 Cloudy OVC009 74 73     97%   76 29.79 29.77 0    
Jun 22 05:10 8 4 Light Rain and Fog/Mist BKN009 OVC016 74 73     97%   76 29.79   0    
Jun 22 04:53 8 10 Cloudy OVC012 75 72     90%   76 29.79 29.77      
Jun 22 04:36 6 10 Cloudy OVC014 75 72     90%   76 29.8        
Jun 22 03:53 9 10 Cloudy OVC015 76 71     85%   77 29.81 29.79      
Jun 22 02:53 E 7 10 Cloudy OVC022 76 71     85%   77 29.81 29.79      
Jun 22 01:53 E 9 10 Cloudy BKN025 OVC031 76 71     85%   77 29.82 29.8      
Jun 22 01:32 E 8 10 Cloudy BKN027 OVC032 76 70     82%   77 29.82        
Jun 22 01:24 E 8 10 Mostly Cloudy BKN031 76 70     82%   77 29.82        
Jun 22 00:53 NE 6 10 Cloudy OVC029 76 70     82%   77 29.83 29.81      
Jun 22 00:28 3 10 Mostly Cloudy BKN027 77 69     77%   78 29.84        
Jun 21 23:53 E 6 10 Clear CLR 77 69     77%   78 29.84 29.82      
Jun 21 22:53 E 8 10 Clear CLR 78 69     74%   79 29.83 29.81      
Jun 21 21:53 E 8 10 Cloudy OVC055 80 68     67%   83 29.84 29.82      
Jun 21 20:53 E 8 10 Mostly Clear FEW050 80 68     67%   83 29.84 29.83      
Jun 21 19:53 E 10 10 Clear CLR 83 67     59%   86 29.85 29.83      
Jun 21 18:53 E 7 10 Clear CLR 84 69     61%   88 29.86 29.84      
Jun 21 17:53 E 10 10 Clear CLR 85 68     57%   88 29.88 29.86      
Jun 21 16:53 E 11 10 Clear CLR 86 67     53%   89 29.89 29.87      
Jun 21 15:53 E 13 10 Clear CLR 87 68     53%   91 29.9 29.88      
Jun 21 14:53 9 10 Clear CLR 86 69     57%   90 29.91 29.89      
Jun 21 13:53 NE 10 10 Clear CLR 88 67     50%   91 29.92 29.91      
Jun 21 12:53 8 10 Clear CLR 88 67     50%   91 29.95 29.93      
Jun 21 11:53 8 10 Clear CLR 86 67     53%   89 29.97 29.95      
Jun 21 10:53 3 10 Clear CLR 84 69     61%   88 29.98 29.96      
Jun 21 09:53 Calm 10 Clear CLR 81 68     65%   84 29.99 29.97      
Jun 21 08:53 6 10 Clear CLR 75 66     74%   76 29.99        
Jun 21 07:53 5 10 Clear CLR 72 66     83%   72 29.97        
Jun 21 06:53 6 10 Clear CLR 70 64     83%     29.98        
Jun 20 15:53 9 10 Clear CLR 91 64     41%   93 29.98 29.96      
Jun 20 14:53 NE 7 10 Clear CLR 90 67     47%   93 30 29.98      
Jun 20 13:53 7 10 Clear CLR 89 69     52%   94 30.03 30.01      
Jun 20 12:53 3 10 Clear CLR 88 68     52%   92 30.04 30.02      
Jun 20 01:53 3 10 Clear CLR 71 65     81%   72 30.05 30.03      
Jun 20 00:53 NE 5 10 Clear CLR 73 65     76%   74 30.06 30.05      
Jun 19 23:53 Calm 10 Clear CLR 74 68     82%   75 30.06 30.04      
Jun 19 22:53 E 3 10 Clear CLR 76 68     76%   77 30.05 30.03      
Jun 19 21:53 NE 3 10 Clear CLR 79 68     69%   80 30.02 30.01      
Jun 19 20:53 Calm 10 Clear CLR 81 66     61%   83 30.01 29.99      
Jun 19 19:53 S 5 10 Clear CLR 84 66     55%   86 29.99 29.98      
Jun 19 18:53 E 3 10 Clear CLR 86 63     46%   87 29.97 29.96      
Jun 19 16:53 E 6 10 Clear CLR 87 63     45%   88 29.98 29.97      
Jun 19 15:53 NE 9 10 Clear CLR 87 64     46%   88 30 29.98      
Jun 19 14:53 6 10 Clear CLR 86 66     51%   88 30.01 29.99      
Jun 19 13:53 NE 9 10 Clear CLR 84 62     48%   85 30.01 30      
Jun 19 12:53   10 Clear CLR 82 68     63%   85 30.03 30.02      
Jun 19 11:53 NE 7 10 Clear CLR 79 67     67%   80 30.05 30.03      
Jun 19 09:53 NE 9 10 Clear CLR 71 65     81%   72 30.04 30.03      
Jun 19 09:34 E 6 10 Partly Cloudy SCT008 70 66     87%     30.04        
Jun 19 08:53 NE 6 10 Cloudy OVC007 69 65     87%     30.04 30.03      
Jun 19 08:23 5 10 Mostly Cloudy BKN007 67 64     90%     30.03        
Jun 19 07:53 E 8 10 Partly Cloudy SCT006 67 63     87%     30.02 30.01      
Jun 19 07:42 7 10 Mostly Clear FEW005 67 64     90%     30.02        
Jun 19 06:53 E 5 10 Clear CLR 65 63     93%     30 29.99      
Jun 19 03:53 Calm 10 Clear CLR 64        %     29.96 29.94      
Jun 19 01:53 Calm 10 Mostly Cloudy BKN120 66        %     29.96 29.95      
Jun 19 00:53 Calm 10 Cloudy BKN060 OVC095 66        %     29.98 29.97 0   2
Jun 18 22:11 NNW 5 1.75 Thunderstorms and Heavy Rain BKN041 OVC050 70        %     29.94   0    
Jun 18 21:53 Calm 7 Thunderstorms and Rain OVC042 70        %     29.93 29.91 0 0  
Jun 18 21:50 Calm 7 Light Rain OVC041 70        %     29.92   0    
Jun 18 21:35 Calm 5 Thunderstorms and Rain OVC042 70        %     29.93   0    
Jun 18 21:17 Calm 10 Cloudy OVC042 70        %     29.92        
Jun 18 21:01 Calm 10 Cloudy BKN045 BKN060 OVC075 70        %     29.92        
Jun 18 20:53 SE 3 10 Thunderstorms BKN045 BKN060 OVC075 70        %     29.91 29.89 0    
Jun 18 19:53 NE 7 10 Thunderstorms and Rain OVC048 72        %     29.88 29.87 0    
Jun 18 18:53 N 7 10 Thunderstorms BKN060 OVC070 73        %     29.87 29.85 0   0
Jun 18 17:53 W 8 10 Thunderstorms BKN065 BKN075 OVC090 73        %     29.88 29.86 0    
Jun 18 15:53 NNW 8 10 Thunderstorms FEW014 BKN110 76 70     82%   77 29.87 29.85      
Jun 18 15:50 9 10 Thunderstorms BKN110 75 70     83%   76 29.87        
Jun 18 14:53 NNW 7 10 Partly Cloudy SCT110 75        %     29.87 29.85      
Jun 18 13:53 3 10 Clear CLR 73        %     29.87 29.85      
Jun 18 12:30 6 10 Light Rain FEW055 SCT085 BKN100 72        %     29.89   0    
Jun 18 11:43 E 6 10 Thunderstorms and Rain FEW110 72        %     29.88   0    
Jun 18 11:34 6 10 Light Rain SCT110 72        %     29.88   0    
Jun 18 11:19 E 7 10 Light Rain SCT100 72        %     29.91   0    
Jun 18 11:06 SE 7 10 Light Rain SCT025 BKN100 72        %     29.9   0    
Jun 18 10:53 E 6 10 Light Rain SCT021 BKN026 OVC095 72        %     29.91 29.9 0    
Jun 18 10:31 S 5 10 Mostly Cloudy FEW012 BKN021 70        %     29.92   0    
Jun 18 10:24 S 6 10 Partly Cloudy SCT023 72        %     29.92   0    
Jun 18 10:13 SE 8 10 Light Rain CLR 70        %     29.88   0    
Jun 18 09:53 SE 10 10 Thunderstorms and Rain FEW110 72        %     29.83 29.82 1 1  
Jun 18 09:34 E 13 4 Clear   72        %     29.83   1    
Jun 18 09:29 E 14 3 Clear   72        %     29.83   1    
Jun 18 09:17 15 1 Clear   72 68     87%   73 29.88   0    
Jun 18 09:11 17 1.75 Clear   73 68     84%   74 29.89   0    
Jun 18 09:04   5 Clear   75 68     79%   76 29.88   0    
Jun 18 08:53 7 7 Clear   78 73     85%   80 29.83 29.81      
Jun 18 07:53 NE 9 7 Partly Cloudy SCT060 78 73     85%   80 29.82 29.8      
Jun 18 06:53 E 6 6 Fog/Mist CLR 76 72     88%   77 29.79 29.77      
Jun 18 05:53 Calm 9 Clear CLR 77 72     84%   78 29.78 29.76      
Jun 18 04:53 Calm 8 Clear CLR 77 72     84%   78 29.75 29.73      
Jun 18 03:53 3 9 Clear CLR 77 73     88%   79 29.74 29.72      
Jun 18 02:53 Calm 10 Mostly Clear FEW037 78 73     85%   80 29.77 29.75      
Jun 18 01:53 8 9 Mostly Cloudy BKN032 78 73     85%   80 29.79        
Jun 18 00:53 3 10 Clear CLR 78 72     82%   79 29.73 29.71      
Jun 17 22:53 E 3 10 Clear CLR 80 72     76%   84 29.69 29.67      
Jun 17 21:53 Calm 10 Clear CLR 81 73     77%   86 29.69 29.67      
Jun 17 20:53 Calm 10 Clear CLR 82 74     77%   88 29.68 29.66      
Jun 17 19:53 Calm 10 Clear CLR 85 73     68%   92 29.69 29.67      
Jun 17 18:53 E 6 10 Clear CLR 86 74     67%   94 29.69 29.67      
Jun 17 17:53 Calm 10 Clear CLR 86 72     63%   92 29.69 29.67      
Jun 17 16:53 E 6 10 Clear CLR 86 72     63%   92 29.69 29.67      
Jun 17 15:53 E 7 10 Clear CLR 85 72     65%   91 29.69 29.67      
Jun 17 14:53 5 10 Clear CLR 85 70     61%   89 29.68 29.66      
Jun 17 12:53 15 10 Clear CLR 81 70     69%   84 29.66 29.65     0
Jun 17 12:39   10 Clear CLR 81 69     67%   84 29.62        
Jun 17 12:30   10 Mostly Clear FEW085 FEW110 81 69     67%   84 29.64        
Jun 17 11:53 18 10 Mostly Clear FEW080 FEW095 80 70     71%   83 29.65   0    
Jun 17 11:51 17 10 Mostly Clear FEW080 FEW100 81 70     70%   84 29.66   0    
Jun 17 11:25   10 Light Rain FEW090 FEW110 79 71     77%   82 29.69   0    
Jun 17 11:16   10 Light Rain SCT100 79 71     77%   82     0    
Jun 17 11:01 S 14 9 Light Rain SCT100 78 71     79%   79 29.76   0    
Jun 17 10:53 S 17 10 Mostly Clear FEW100 78 71     79%   79 29.78 29.76      
Jun 17 08:53 17 10 Partly Cloudy SCT039 79 71     77%   82 29.81 29.79      
Jun 17 07:53 E 11 10 Clear CLR 78 72     82%   79 29.81 29.79      
Jun 17 06:53 E 9 10 Clear CLR 77 72     84%   78 29.78 29.76      
Jun 17 05:53 5 10 Clear CLR 76 72     88%   77 29.76 29.74      
Jun 17 04:53 NE 3 10 Clear CLR 76 72     88%   77 29.74 29.72      
Jun 17 02:53 Calm 10 Clear CLR 80 71     74%   84 29.74 29.72      
Jun 17 01:53 Calm 10 Clear CLR 81 71     72%   85 29.73 29.7      
Jun 17 00:53 Calm 10 Clear CLR 82 71     69%   86 29.75 29.72      
Jun 16 21:53 5 10 Clear CLR 85 74     70%   92 29.73 29.71      
Jun 16 20:53 6 10 Clear CLR 87 73     63%   95 29.73 29.71      
Jun 16 18:53 5 10 Partly Cloudy SCT055 92 74     56%   102 29.72 29.7      
Jun 16 16:53 10 10 Mostly Cloudy BKN050 95 70     44%   102 29.75 29.73      
Jun 16 15:53 5 10 Mostly Clear FEW050 93 69     46%   98 29.77 29.75      
Jun 16 14:53 11 10 Mostly Clear FEW050 95 69     43%   101 29.79 29.77      
Jun 16 13:53 9 10 Clear CLR 92 71     51%   99 29.82 29.8      
Jun 16 12:53 8 10 Clear CLR 91 70     50%   97 29.84 29.82      
Jun 16 11:53 S 8 10 Clear CLR 88 69     54%   92 29.85 29.83      
Jun 16 10:53 3 10 Clear CLR 83 66     57%   85 29.87 29.85      
Jun 16 09:53 NE 5 10 Clear CLR 78 64     62%   79 29.89 29.87      
Jun 16 08:53 5 10 Clear CLR 76 63     64%   76 29.89 29.87      
Jun 16 07:53 NE 7 10 Clear CLR 73 64     73%   73 29.89 29.87      
Jun 16 06:53 3 10 Clear CLR 69 63     81%     29.87 29.85     0
Jun 16 05:53 Calm 10 Clear CLR 70 62     76%     29.86 29.84      
Jun 16 04:53 6 10 Clear CLR 71 61     70%   71 29.82 29.8      
Jun 16 03:53 15 10 Mostly Clear FEW100 70 62     76%     29.81 29.79 0 0  
Jun 16 02:53   6 Rain BKN055 BKN075 OVC110 71 62     73%   71 29.87 29.85 0    
Jun 16 01:53 N 15 10 Mostly Cloudy FEW065 FEW075 BKN110 73 61     66%   73 29.99 29.97 0    
Jun 16 01:27 N 16 10 Cloudy OVC060 72 61     68%   72 30   0    
Jun 16 00:53   10 Thunderstorms and Rain FEW026 SCT033 OVC050 74 61     64%   74 30 29.98 0   0
Jun 15 23:53 N 3 10 Clear CLR 80 72     76%   84 29.9 29.88      
Jun 15 22:53 Calm 10 Clear CLR 79 72     79%   82 29.89 29.87      
Jun 15 21:53 E 5 10 Partly Cloudy SCT046 81 72     74%   85 29.88 29.86      
Jun 15 20:53 E 3 10 Clear CLR 83 72     70%   88 29.86 29.85      
Jun 15 19:53 7 10 Clear CLR 87 73     63%   95 29.82 29.8      
Jun 15 18:53 E 5 10 Partly Cloudy SCT042 89 73     59%   97 29.84 29.82      
Jun 15 16:53 Calm 10 Mostly Clear FEW034 89 72     57%   96 29.88 29.86      
Jun 15 14:53 8 10 Clear CLR 87 70     57%   92 29.92 29.9      
Jun 15 13:53 E 9 10 Clear CLR 85 69     59%   89 29.94 29.92      
Jun 15 11:53   10 Partly Cloudy FEW029 FEW035 SCT044 82 67     60%   85 30 29.98      
Jun 15 11:35   10 Cloudy BKN032 BKN044 OVC055 81 67     62%   83 30.01        
Jun 15 11:25 15 10 Mostly Cloudy BKN029 BKN060 81 69     67%   84 30        
Jun 15 10:53 3 10 Partly Cloudy SCT025 85 71     63%   90 29.98 29.96      
Jun 15 09:53 E 6 10 Mostly Clear FEW055 FEW080 83 72     70%   88 29.99 29.97      
Jun 15 08:53 6 10 Mostly Cloudy BKN060 80 72     76%   84 29.98 29.96      
Jun 15 07:53 5 9 Mostly Cloudy BKN055 79 72     79%   82 29.97 29.95      
Jun 15 06:53 NE 5 7 Clear CLR 75 71     88%   76 29.95 29.93      
Jun 15 05:53 3 8 Partly Cloudy SCT060 75 71     88%   76 29.92 29.91      
Jun 15 04:53 NE 5 9 Cloudy OVC060 77 72     84%   78 29.91 29.89      
Jun 15 03:53 Calm 10 Clear CLR 77 70     79%   78 29.88 29.86      
Jun 15 02:53 3 10 Mostly Cloudy BKN060 77 71     82%   78 29.89 29.87      
Jun 15 00:53 S 6 10 Clear CLR 80 71     74%   84 29.92 29.9      
Jun 14 23:53 S 5 10 Clear CLR 81 71     72%   85 29.93 29.91      
Jun 14 22:53 S 5 10 Clear CLR 82 70     67%   86 29.92 29.9      
Jun 14 20:53 S 6 10 Clear CLR 85 70     61%   89 29.88 29.86      
Jun 14 19:53 8 10 Clear CLR 89 69     52%   94 29.87 29.85      
Jun 14 18:53 8 10 Clear CLR 91 70     50%   97 29.86 29.84      
Jun 14 17:53 13 10 Clear CLR 91 68     47%   95 29.87 29.85      
Jun 14 16:53 11 10 Clear CLR 91 68     47%   95 29.88 29.86      
Jun 14 15:53 11 10 Mostly Clear FEW049 92 68     46%   96 29.89 29.87      
Jun 14 14:53 S 9 10 Mostly Cloudy SCT042 BKN049 BKN070 89 70     53%   94 29.9 29.88      
Jun 14 13:53 S 10 10 Mostly Cloudy SCT043 SCT050 BKN065 89 69     52%   94 29.91 29.89      
Jun 14 12:53 14 10 Mostly Cloudy FEW037 BKN060 88 70     55%   93 29.94 29.92      
Jun 14 11:53 15 10 Mostly Cloudy FEW032 BKN042 BKN050 86 69     57%   90 29.96 29.94      
Jun 14 10:53 11 10 Mostly Cloudy BKN033 86 70     59%   91 29.96 29.94      
Jun 14 09:53 S 13 10 Clear CLR 84 69     61%   88 29.95 29.93      
Jun 14 08:53 S 8 10 Mostly Clear FEW044 82 70     67%   86 29.96 29.94      
Jun 14 07:53 S 5 10 Mostly Cloudy BKN034 80 69     69%   83 29.95 29.93      
Jun 14 06:53 3 10 Clear CLR 77 69     77%   78 29.94 29.92      
Jun 14 05:53 SE 6 10 Clear CLR 75 70     84%   76 29.92 29.9      
Jun 14 04:53 E 5 10 Clear CLR 75 70     84%   76 29.91 29.89      
Jun 14 03:53 Calm 10 Clear CLR 77 70     79%   78 29.9 29.88      
Jun 14 02:53 E 6 10 Clear CLR 77 71     82%   78 29.88 29.86      
Jun 14 01:53 3 10 Clear CLR 78 71     79%   79 29.9 29.88      
Jun 14 00:53 5 10 Clear CLR 79 71     77%   82 29.91 29.89      
Jun 13 23:53 SE 7 10 Clear CLR 80 70     71%   83 29.89 29.87      
Jun 13 22:53 SE 6 10 Clear CLR 81 70     69%   84 29.9 29.88      
Jun 13 21:53 SE 6 10 Clear CLR 82 70     67%   86 29.89 29.87      
Jun 13 20:53 9 10 Clear CLR 84 69     61%   88 29.88 29.86      
Jun 13 18:53 SE 14 10 Clear CLR 88 70     55%   93 29.85 29.83      
Jun 13 17:53 10 10 Clear CLR 90 69     50%   95 29.86 29.84      
Jun 13 16:53 11 10 Partly Cloudy SCT045 90 69     50%   95 29.87 29.85      
Jun 13 15:53 11 10 Mostly Clear FEW048 FEW060 90 69     50%   95 29.89 29.87      
Jun 13 14:53 SE 9 10 Mostly Cloudy FEW044 BKN055 BKN080 88 68     52%   92 29.91 29.89      
Jun 13 13:53 S 11 10 Mostly Clear FEW060 89 69     52%   94 29.93 29.91      
Jun 13 12:53 S 9 10 Mostly Cloudy SCT036 BKN055 86 69     57%   90 29.96 29.94      
Jun 13 11:53 S 14 10 Mostly Cloudy SCT033 BKN044 86 69     57%   90 29.97 29.95      
Jun 13 10:53 7 10 Mostly Cloudy FEW023 BKN055 82 70     67%   86 29.98 29.96      
Jun 13 09:53 11 10 Cloudy OVC055 79 70     74%   82 29.99 29.97      
Jun 13 08:53 SE 7 10 Cloudy OVC046 78 70     76%   79 29.99 29.97      
Jun 13 06:53 SE 5 10 Cloudy OVC036 76 68     76%   77 29.97 29.95      
Jun 13 05:53 6 10 Mostly Cloudy BKN032 75 68     79%   76 29.95 29.93      
Jun 13 04:53 E 3 10 Clear CLR 74 68     82%   75 29.93 29.91      
Jun 13 03:53 5 10 Clear CLR 75 69     82%   76 29.92 29.9      
Jun 13 02:53 Calm 10 Clear CLR 76 69     79%   77 29.92 29.91      
Jun 13 01:53 Calm 10 Clear CLR 78 69     74%   79 29.94 29.92      
Jun 13 00:53 SE 5 10 Clear CLR 80 69     69%   83 29.94 29.92      
Jun 12 23:53 SE 7 10 Clear CLR 80 69     69%   83 29.93 29.91      
Jun 12 22:53 7 10 Clear CLR 82 70     67%   86 29.94 29.92      
Jun 12 21:53 6 10 Partly Cloudy SCT044 84 70     63%   88 29.92 29.9      
Jun 12 20:53 SE 6 10 Mostly Clear FEW055 85 70     61%   89 29.9 29.88      
Jun 12 19:53 8 10 Clear CLR 88 69     54%   92 29.88 29.86      
Jun 12 18:53 SE 9 10 Clear CLR 89 69     52%   94 29.87 29.85      
Jun 12 17:53 9 10 Partly Cloudy SCT050 90 68     49%   94 29.88 29.86      
Jun 12 16:53 7 10 Mostly Cloudy SCT050 BKN060 91 69     49%   96 29.9 29.88      
Jun 12 14:53 10 10 Clear CLR 90 70     52%   95 29.94 29.92      
Jun 12 13:53 8 10 Mostly Cloudy SCT038 SCT047 BKN070 88 69     54%   92 29.96 29.94      
Jun 12 12:53 SE 8 10 Mostly Cloudy FEW032 BKN070 87 70     57%   92 29.98 29.96      
Jun 12 11:53 S 13 10 Partly Cloudy SCT060 87 69     55%   91 30 29.98      
Jun 12 10:53 S 7 10 Mostly Cloudy FEW030 SCT035 BKN050 84 70     63%   88 30 29.98      
Jun 12 10:00 SE 9 10 Mostly Cloudy BKN024 83 71     67%   88 30        
Jun 12 09:53 SE 9 10 Partly Cloudy SCT024 84 70     63%   88 30 29.98      
Jun 12 08:53 SE 8 10 Clear CLR 81 70     69%   84 29.99 29.98      
Jun 12 07:53 SE 8 10 Clear CLR 78 69     74%   79 29.98 29.96      
Jun 12 06:53 3 10 Clear CLR 75 68     79%   76 29.97 29.95      
Jun 12 05:53 NE 3 10 Clear CLR 72 68     87%   73 29.96 29.94      
Jun 12 04:53 5 10 Cloudy OVC039 74 68     82%   75 29.95 29.93      
Jun 12 03:53 3 10 Mostly Cloudy BKN036 73 66     79%   74 29.94 29.92      
Jun 12 02:53 5 10 Clear CLR 73 65     76%   74 29.94 29.92      
Jun 12 01:53 E 6 10 Clear CLR 73 64     73%   73 29.94 29.92      
Jun 12 00:53 E 5 10 Clear CLR 74 63     69%   74 29.94 29.92      
Jun 11 23:53 7 10 Clear CLR 73 64     73%   73 29.94 29.92      
Jun 11 22:53 6 10 Clear   74 63     69%   74 29.94 29.93      
Jun 11 21:53 E 6 10 Clear CLR 77 63     62%   77 29.93 29.91      
Jun 11 20:53 Calm 10 Clear   82 61     49%   83 29.91 29.89      
Jun 11 19:53 6 10 Clear CLR 85 61     45%   85 29.9 29.88      
Jun 11 18:53 11 10 Clear CLR 87 61     42%   87 29.9 29.88      
Jun 11 17:53 8 10 Mostly Clear FEW060 88 62     42%   88 29.91 29.89      
Jun 11 16:53 S 8 10 Mostly Clear FEW060 87 61     42%   87 29.92 29.91      
Jun 11 15:53 SE 11 10 Mostly Cloudy BKN060 89 62     41%   90 29.94 29.92      
Jun 11 14:53 S 9 10 Clear   88 61     40%   88 29.96 29.94      
Jun 11 13:53 11 10 Mostly Cloudy BKN055 85 61     45%   85 29.97 29.95      
Jun 11 12:53 S 9 10 Partly Cloudy SCT049 SCT055 86 63     46%   87 29.97 29.95      
Jun 11 11:53 S 11 10 Mostly Clear FEW048 84 63     49%   85 29.97 29.95      
Jun 11 10:53 S 9 10 Partly Cloudy FEW036 SCT044 83 65     55%   85 29.97 29.95      
Jun 11 09:53 SE 3 10 Mostly Clear FEW038 80 65     60%   82 29.98 29.96      
Jun 11 08:53 E 6 10 Clear CLR 78 65     64%   79 29.97 29.95      
Jun 11 07:53 Calm 10 Clear CLR 74 64     71%   74 29.96 29.95      
Jun 11 06:53 5 10 Clear CLR 70 62     76%     29.95 29.93      
Jun 11 05:53 NE 6 10 Clear CLR 68 61     78%     29.94 29.92      
Jun 11 04:53 5 10 Clear CLR 67 61     81%     29.93 29.91      
Jun 11 03:53 NE 5 10 Clear CLR 69 62     78%     29.93 29.91      
Jun 11 02:53 6 10 Clear CLR 69 62     78%     29.93 29.91      
Jun 11 01:53 6 10 Clear CLR 70 63     78%     29.93 29.92      
Jun 11 00:53 5 10 Clear CLR 71 63     76%   71 29.93 29.91      
Jun 10 23:53 Calm 10 Clear CLR 73 63     71%   73 29.93 29.91      
Jun 10 22:53 E 3 10 Clear CLR 75 63     66%   75 29.92 29.9      
Jun 10 21:53 3 10 Clear CLR 77 63     62%   77 29.9 29.88      
Jun 10 20:53 SE 5 10 Clear CLR 79 63     58%   79 29.88 29.86      
Jun 10 19:53 7 10 Clear CLR 82 62     51%   83 29.87 29.85      
Jun 10 18:53 S 13 10 Clear CLR 84 64     51%   85 29.86 29.84      
Jun 10 17:53 10 10 Partly Cloudy FEW045 SCT060 85 63     48%   86 29.87 29.85      
Jun 10 16:53 SE 13 10 Mostly Cloudy BKN060 86 64     48%   87 29.88 29.86      
Jun 10 15:53 11 10 Cloudy OVC055 85 63     48%   86 29.89 29.87      
Jun 10 14:53 S 9 10 Mostly Cloudy FEW050 BKN060 87 63     45%   88 29.9 29.88      
Jun 10 13:53 SE 8 10 Mostly Cloudy BKN050 85 61     45%   85 29.9 29.89      
Jun 10 12:53 11 10 Clear CLR 86 62     45%   87 29.92 29.9      
Jun 10 11:53 6 10 Clear CLR 84 62     48%   85 29.93 29.91      
Jun 10 10:53 8 10 Clear CLR 82 60     47%   82 29.94 29.92      
Jun 10 09:53 9 10 Clear CLR 77 59     54%   77 29.94 29.93      
Jun 10 08:53 E 6 10 Clear CLR 74 59     60%   74 29.95 29.93      
Jun 10 07:53 6 10 Clear CLR 70 59     68%     29.94 29.92      
Jun 10 06:53 7 10 Clear CLR 66 59     78%     29.92 29.9      
Jun 10 04:53 E 5 10 Clear CLR 64 57     78%     29.89 29.88      
Jun 10 03:53 E 3 10 Clear CLR 65 57     76%     29.89 29.88      
Jun 10 02:53 E 3 10 Clear CLR 67 58     73%     29.9 29.88      
Jun 10 01:53 Calm 10 Clear CLR 68 58     70%     29.9 29.89      
Jun 10 00:53 SE 6 10 Clear CLR 69 58     68%     29.91 29.89      
Jun 09 23:53 SE 3 10 Clear CLR 70 58     66%     29.91 29.89      
Jun 09 22:53 SE 6 10 Clear CLR 71 58     63%   71 29.89 29.88      
Jun 09 21:53 SE 3 10 Clear CLR 73 58     59%   73 29.89 29.87      
Jun 09 20:53 3 10 Clear CLR 77 56     48%   77 29.88 29.86      
Jun 09 19:53 SE 6 10 Clear CLR 80 55     42%   80 29.87 29.85      
Jun 09 18:53 SE 7 10 Clear CLR 82 54     38%   81 29.87 29.85      
Jun 09 17:53 SE 5 10 Clear CLR 83 53     36%   82 29.88 29.86      
Jun 09 16:53 SE 8 10 Clear CLR 83 55     38%   82 29.89 29.88      
Jun 09 15:53 8 10 Partly Cloudy SCT060 82 56     41%   82 29.9 29.89      
Jun 09 14:53 SE 8 10 Partly Cloudy SCT060 83 55     38%   82 29.92 29.9      
Jun 09 13:53 Calm 10 Partly Cloudy SCT049 84 54     36%   83 29.94 29.92      
Jun 09 12:53 3 10 Mostly Cloudy BKN049 BKN060 80 55     42%   80 29.96 29.94      
Jun 09 11:53 3 10 Mostly Clear FEW043 80 57     45%   80 29.97 29.96      
Jun 09 09:53 3 10 Clear CLR 73 57     57%   73 29.97 29.96      
Jun 09 08:53 7 10 Clear CLR 71 57     61%   71 29.98 29.96      
Jun 09 07:53 7 10 Clear CLR 68 57     68%     29.97 29.96      
Jun 09 06:53 Calm 10 Clear CLR 65 58     78%     29.96 29.95      
Jun 09 04:53 E 5 10 Clear CLR 62 58     86%     29.92 29.91      
Jun 09 03:53 5 10 Clear CLR 63 59     87%     29.92 29.9      
Jun 09 02:53 7 10 Clear   64 59     84%     29.92 29.9      
Jun 09 01:53 NE 5 10 Clear CLR 64 60     87%     29.92 29.91      
Jun 09 00:53 5 10 Clear CLR 67 59     76%     29.93 29.91      
Jun 08 23:53 NE 5 10 Clear CLR 66 59     78%     29.93 29.92      
Jun 08 22:53 Calm 10 Clear CLR 70 58     66%     29.93 29.91      
Jun 08 21:53 Calm 10 Clear CLR 71 59     66%   71 29.91 29.9      
Jun 08 19:53 3 10 Clear CLR 78 52     40%   77 29.91 29.9      
Jun 08 18:53 5 10 Clear CLR 80 49     34%   79 29.91 29.9      
Jun 08 16:53 E 5 10 Clear CLR 82 50     33%   81 29.94 29.92      
Jun 08 15:53 Calm 10 Clear CLR 83 49     31%   81 29.96 29.94      
Jun 08 14:53 7 10 Clear CLR 83 52     34%   82 29.97 29.96      
Jun 08 13:53 5 10 Clear CLR 81 48     32%   80 29.99 29.98      
Jun 08 12:53 3 10 Clear CLR 80 49     34%   79 30.02 30.01      
Jun 08 11:53 S 5 10 Clear CLR 79 51     38%   78 30.04 30.02      
Jun 08 10:53 8 10 Clear CLR 77 55     47%   77 30.04 30.02      
Jun 08 09:53 3 10 Clear CLR 74 55     52%   73 30.05 30.04      
Jun 08 08:53 3 10 Clear CLR 70 54     57%     30.06 30.05      
Jun 08 07:53 3 10 Clear CLR 65 56     73%     30.04 30.03      
Jun 08 06:53 Calm 10 Clear CLR 61 55     81%     30.04 30.02      
Jun 08 05:53 Calm 10 Clear CLR 59 56     90%     30.02 30      
Jun 08 04:53 3 10 Clear CLR 61 55     81%     29.99 29.98      
Jun 08 03:53 E 3 10 Clear CLR 62 56     80%     29.99 29.98      
Jun 08 02:53 Calm 10 Clear CLR 63 56     78%     30 29.98      
Jun 08 01:53 Calm 10 Clear CLR 64 56     75%     30.01 30      
Jun 08 00:53 Calm 10 Clear CLR 66 57     73%     30 29.99      
Jun 07 23:53 Calm 10 Clear CLR 69 55     61%     30 29.99      
Jun 07 22:53 5 10 Clear CLR 70 57     63%     30 29.98      
Jun 07 21:53 6 10 Clear CLR 73 57     57%   73 29.99 29.97      
Jun 07 20:53 NE 6 10 Clear CLR 75 53     46%   74 29.97 29.95      
Jun 07 19:53 Calm 10 Clear CLR 80 51     36%   79 29.97 29.96      
Jun 07 18:53 3 10 Clear CLR 83 48     30%   81 29.97 29.96      
Jun 07 17:53 N 6 10 Clear CLR 84 49     30%   82 29.97 29.96      
Jun 07 16:53   10 Clear CLR 83 48     30%   81 29.98 29.96      
Jun 07 15:53 3 10 Clear CLR 82 49     32%   81 29.99 29.97      
Jun 07 14:53 7 10 Clear CLR 82 49     32%   81 30 29.98      
Jun 07 13:53 10 10 Clear CLR 82 48     31%   81 30.01 30      
Jun 07 12:53 9 10 Clear CLR 80 53     39%   80 30.02 30.01      
Jun 07 11:53 NE 11 10 Clear CLR 79 53     41%   78 30.03 30.01      
Jun 07 10:53 9 10 Clear CLR 77 52     42%   76 30.03 30.02      
Jun 07 09:53 8 10 Clear CLR 74 52     46%   73 30.03 30.01      
Jun 07 08:53 7 10 Partly Cloudy SCT055 72 55     55%   71 30.02 30      
Jun 07 07:53 NE 3 10 Mostly Clear FEW055 69 53     57%     30.01 29.99      
Jun 06 14:53 8 10 Mostly Clear FEW085 91 57     32%   90 29.83 29.81      
Jun 06 13:53 N 11 10 Clear CLR 92 55     29%   90 29.85 29.83      
Jun 06 12:53 N 6 10 Mostly Clear FEW060 90 62     40%   90 29.86 29.84      
Jun 06 11:53 7 10 Clear CLR 88 65     47%   90 29.86 29.84      
Jun 06 10:53 Calm 10 Clear CLR 84 67     57%   87 29.87 29.85      
Jun 06 09:53 3 10 Clear CLR 81 69     67%   84 29.88 29.86      
Jun 06 08:53 3 10 Clear CLR 77 69     77%   78 29.87 29.86      
Jun 06 07:53 Calm 10 Clear CLR 73 67     81%   74 29.87 29.85      
Jun 06 06:53 Calm 10 Clear CLR 69 66     90%     29.87 29.85      
Jun 06 05:53 Calm 10 Clear CLR 69 66     90%     29.86 29.85      
Jun 06 04:53 Calm 10 Clear CLR 68 66     93%     29.85 29.83      
Jun 06 03:53 Calm 10 Clear CLR 69 66     90%     29.84 29.82      
Jun 06 03:42 W 3 3 Fog/Mist CLR 69 67     93%     29.84        
Jun 06 03:30 Calm 1.5 Fog/Mist CLR 69 66     90%     29.84        
Jun 06 03:22 Calm 3 Fog/Mist CLR 69 67     93%     29.84        
Jun 06 03:17 Calm 1 Fog/Mist CLR 69 66     90%     29.84        
Jun 06 02:53 Calm 0.5 Fog VV002 69 67     93%     29.84 29.82      
Jun 06 02:43 Calm 0.75 Fog/Mist VV002 69 67     93%     29.84        
Jun 06 02:40 Calm 2.5 Fog/Mist SCT002 69 67     93%     29.84        
Jun 06 01:53 Calm 8 Clear CLR 69 67     93%     29.83 29.82      
Jun 06 00:53 Calm 10 Clear CLR 71 68     90%   72 29.83 29.81      
Jun 05 23:53 Calm 10 Clear CLR 72 68     87%   73 29.83 29.82      
Jun 05 22:53 Calm 10 Clear CLR 72 69     91%   73 29.83 29.81      
Jun 05 21:53 Calm 10 Clear   74 70     87%   75 29.82 29.8      
Jun 05 20:53 Calm 10 Clear CLR 76 71     85%   77 29.8 29.78      
Jun 05 19:53 5 10 Clear CLR 77 69     77%   78 29.79 29.77      
Jun 05 18:53 NE 3 10 Clear CLR 79 69     72%   80 29.78 29.77     1
Jun 05 17:53 Calm 10 Clear CLR 76 69     79%   77 29.77 29.75 0    
Jun 05 16:53 Calm 10 Light Rain BKN035 BKN049 OVC110 75 68     79%   76 29.77 29.76 0    
Notice The following observation data may not be complete
Jun 05 16:04   10 Mostly Cloudy FEW012 SCT040 BKN047          %         0    
Jun 05 15:53 Calm 4 Thunderstorms and Rain FEW012 BKN036 OVC046 74 67     79%   75 29.77 29.75 1 1  
Jun 05 15:50 5 1 Thunderstorms and Rain FEW012 BKN032 OVC039 73 68     83%   74 29.77   1    
Jun 05 15:41 6 0.5 Thunderstorms and Heavy Rain SCT009 BKN024 OVC033 73 67     81%   74 29.77   0    
Jun 05 15:38   0.75 Thunderstorms and Heavy Rain FEW011 SCT024 OVC034 73 68     84%   74 29.78   0    
Jun 05 15:22 6 10 Thunderstorms FEW030 BKN037 OVC060 81 69     67%   84 29.75   0    
Jun 05 14:53 6 10 Mostly Cloudy BKN040 83 69     63%   87 29.76 29.75      
Jun 05 13:53 Calm 10 Cloudy BKN050 OVC110 80 69     69%   83 29.78 29.76 0    
Jun 05 13:20 Calm 10 Light Rain SCT029 BKN041 OVC110 77 70     79%   78 29.78   0    
Jun 05 13:11 E 6 2 Rain SCT029 BKN041 OVC060 76 70     82%   77 29.79   0    
Jun 05 12:53 NE 7 10 Light Rain SCT027 BKN034 BKN042 81 67     62%   83 29.79 29.77 0   0
Jun 05 11:53 Calm 10 Mostly Cloudy BKN021 BKN027 80 67     64%   82 29.8 29.78      
Jun 05 11:42 N 3 10 Mostly Cloudy SCT021 BKN026 80 67     64%   82 29.8        
Jun 05 10:53 6 10 Mostly Clear FEW019 78 68     71%   79 29.8 29.78      
Jun 05 09:55 NE 3 10 Mostly Cloudy BKN008 BKN016 76 67     74%   77 29.81        
Jun 05 09:53 3 10 Mostly Cloudy SCT008 BKN016 76 68     76%   77 29.81 29.79      
Jun 05 08:53 E 3 10 Cloudy OVC004 72 68     87%   73 29.8 29.78      
Jun 05 07:53 5 3 Fog/Mist OVC003 72 68     87%   73 29.8 29.78      
Jun 05 07:42 NE 3 3 Fog/Mist OVC003 72 68     87%   73 29.79        
Jun 05 07:41 NE 5 3 Fog/Mist OVC003 72 68     87%   73 29.79        
Jun 05 07:26 NE 6 8 Cloudy OVC002 71 68     90%   72 29.79        
Jun 05 07:09 NE 6 2 Fog/Mist OVC002 71 68     90%   72 29.79        
Jun 05 06:53 Calm 0.5 Fog OVC002 71 69     93%   72 29.79 29.78     0
Jun 05 06:46 Calm 1.75 Fog/Mist OVC002 71 69     93%   72 29.79        
Jun 05 06:13 E 3 3 Fog/Mist OVC002 71 69     93%   72 29.78        
Jun 05 06:01 E 3 1.25 Fog/Mist OVC002 71 69     93%   72 29.78        
Jun 05 05:53 E 3 0.75 Fog/Mist VV002 71 69     93%   72 29.78 29.76 0    
Jun 05 05:46 3 1 Fog/Mist VV002 71 69     93%   72 29.78   0    
Jun 05 05:38 E 5 2.5 Light Rain and Fog/Mist OVC002 71 69     93%   72 29.78   0    
Jun 05 05:04 3 1.25 Fog/Mist OVC002 71 69     93%   72 29.77        
Jun 05 04:53 Calm 0.75 Fog/Mist VV002 71 69     93%   72 29.76 29.75      
Jun 05 04:24 Calm 0.5 Fog VV002 71 69     93%   72 29.77        
Jun 05 04:10 Calm 1.25 Fog/Mist OVC002 71 68     90%   72 29.77        
Jun 05 03:53 Calm 0.5 Fog VV002 71 68     90%   72 29.77 29.75      
Jun 05 03:41 Calm 0.5 Fog VV002 71 68     90%   72 29.76        
Jun 05 03:30 Calm 0.25 Fog VV002 71 68     90%   72 29.77        
Jun 05 03:18 Calm 0.25 Fog VV002 71 68     90%   72 29.77        
Jun 05 03:09 Calm 0.5 Fog VV002 71 68     90%   72 29.77        
Jun 05 03:01 3 1 Fog/Mist OVC002 71 68     90%   72 29.77        
Jun 05 02:53 Calm 2.5 Haze OVC002 73 68     84%   74 29.77 29.75      
Jun 05 02:26 Calm 8 Mostly Cloudy BKN005 70 66     87%     29.76        
Jun 05 01:55 3 3 Fog/Mist FEW003 70 68     93%     29.76        
Jun 05 01:53 3 2.5 Fog/Mist CLR 70 68     93%     29.76 29.75      
Jun 05 01:48 Calm 1.75 Fog/Mist CLR 72 68     88%   73 29.76        
Jun 05 00:53 Calm 10 Clear CLR 72 68     87%   73 29.78 29.76      
Jun 04 23:53 Calm 10 Clear   72 68     87%   73 29.78 29.77      
Jun 04 22:53 Calm 10 Clear CLR 73 69     87%   74 29.79 29.78      
Jun 04 21:53 5 10 Clear CLR 73 68     84%   74 29.79 29.77      
Jun 04 20:53 3 10 Mostly Clear FEW014 75 69     82%   76 29.78 29.77      
Jun 04 19:53 5 10 Clear CLR 76 69     79%   77 29.77 29.75      
Jun 04 18:53 6 10 Clear CLR 77 67     71%   78 29.77 29.75     0
Jun 04 17:53 E 9 10 Clear CLR 77 68     74%   78 29.76 29.75      
Jun 04 16:53 E 10 10 Partly Cloudy FEW014 SCT028 77 69     77%   78 29.79 29.77      
Jun 04 16:51 E 11 10 Partly Cloudy SCT014 SCT028 77 68     74%   78 29.79        
Jun 04 16:40 10 10 Mostly Cloudy BKN014 78 69     74%   79 29.79        
Jun 04 15:53 NE 7 10 Clear CLR 77 69     77%   78 29.8 29.78   0  
Jun 04 15:38 NE 6 10 Partly Cloudy SCT012 76 69     79%   77 29.81        
Jun 04 15:15 9 10 Mostly Cloudy BKN011 76 68     76%   77 29.81        
Jun 04 14:53 N 10 10 Mostly Cloudy FEW010 BKN019 75 68     79%   76 29.82 29.8      
Jun 04 14:21 NNW 8 10 Cloudy SCT009 OVC015 75 69     82%   76 29.83        
Jun 04 13:53 NNW 6 10 Mostly Cloudy BKN006 74 69     85%   75 29.83 29.82 0    
Jun 04 13:42 N 6 10 Mostly Cloudy BKN006 BKN085 73 69     87%   74 29.83   0    
Jun 04 13:07 E 3 10 Light Rain FEW009 BKN033 OVC100 72 69     91%   73 29.84   0    
Jun 04 12:59 NE 8 2 Light Rain and Fog/Mist FEW010 BKN036 OVC070 72 68     87%   73 29.84   0    
Jun 04 12:53 N 6 1 Heavy Rain and Fog/Mist FEW006 SCT013 OVC027 71 68     90%   72 29.85 29.83 1   2
Jun 04 12:39 3 0.75 Heavy Rain and Fog/Mist SCT007 BKN012 OVC030 71 68     90%   72 29.85   1    
Jun 04 12:31 8 1 Heavy Rain and Fog/Mist FEW005 BKN009 OVC029 71 68     90%   72 29.86   1    
Jun 04 12:22 E 7 0.75 Heavy Rain and Fog/Mist FEW005 BKN010 OVC031 71 68     90%   72 29.85   0    
Jun 04 12:19 8 1 Heavy Rain and Fog/Mist FEW005 BKN010 OVC033 71 68     90%   72 29.86   0    
Jun 04 12:04 S 6 1 Thunderstorms and Heavy Rain and Fog/Mist SCT006 BKN027 OVC045 72 69     91%   73 29.86   0    
Jun 04 11:55 S 7 1 Thunderstorms and Heavy Rain and Fog/Mist BKN006 BKN030 OVC070 73 70     90%   74 29.86   0    
Jun 04 11:53 6 0.75 Thunderstorms and Heavy Rain and Fog/Mist BKN013 BKN035 OVC050 73 70     90%   74 29.86 29.84 1    
Jun 04 11:41 Calm 0.75 Thunderstorms and Heavy Rain and Fog/Mist BKN013 BKN035 OVC050 73 70     90%   74 29.85   1    
Jun 04 11:36 Calm 2 Thunderstorms and Rain and Fog/Mist BKN013 BKN035 OVC050 73 70     90%   74 29.85   0    
Jun 04 11:26 NE 6 0.5 Thunderstorms and Heavy Rain and Fog BKN013 BKN035 OVC050 74 70     87%   75 29.84   0    
Jun 04 11:15 5 1.25 Thunderstorms and Heavy Rain and Fog/Mist BKN013 BKN035 OVC050 74 70     87%   75 29.85   0    
Jun 04 11:11 6 1.75 Heavy Rain and Fog/Mist BKN013 BKN035 OVC050 74 70     87%   75 29.85   0    
Jun 04 10:56 5 10 Cloudy BKN013 BKN035 OVC050 76 69     79%   77 29.85        
Jun 04 10:54 E 6 10 Cloudy SCT013 BKN035 OVC050 77 69     77%   78 29.85        
Jun 04 10:53 E 6 10 Cloudy SCT013 BKN035 OVC050 77 69     77%   78 29.85 29.83      
Jun 04 10:24 E 5 10 Cloudy BKN013 OVC037 76 69     79%   77 29.86        
Jun 04 09:53 3 10 Mostly Cloudy SCT011 BKN033 76 69     79%   77 29.87 29.86      
Jun 04 08:53 E 8 10 Mostly Cloudy BKN009 74 68     82%   75 29.87 29.85      
Jun 04 07:53 E 7 10 Mostly Cloudy BKN006 BKN090 73 68     84%   74 29.87 29.86      
Jun 04 06:53 5 8 Cloudy OVC005 72 68     87%   73 29.88 29.86 0   0
Jun 04 06:12 3 8 Cloudy OVC003 71 68     90%   72 29.88   0    
Jun 04 06:03 5 8 Cloudy OVC003 71 68     90%   72 29.87   0    
Jun 04 05:53 7 6 Light Rain and Fog/Mist OVC003 71 68     90%   72 29.87 29.85 0    
Jun 04 05:48 6 6 Light Rain and Fog/Mist OVC002 72 68     88%   73 29.87   0    
Jun 04 04:53 E 5 9 Cloudy OVC004 72 68     87%   73 29.88 29.86      
Jun 04 04:14 E 5 9 Mostly Cloudy BKN005 BKN090 71 68     90%   72 29.89        
Jun 04 04:05 E 5 9 Partly Cloudy SCT006 71 68     90%   72 29.89        
Jun 04 03:53 E 5 9 Clear CLR 71 68     90%   72 29.88 29.86      
Jun 04 02:53 NE 5 10 Mostly Clear FEW006 73 69     87%   74 29.88 29.87      
Jun 04 02:51 NE 6 10 Mostly Clear FEW006 73 70     89%   75 29.88        
Jun 04 01:53 E 3 10 Cloudy OVC110 73 70     90%   74 29.9 29.88      
Jun 04 00:53 3 10 Mostly Clear FEW120 73 70     90%   74 29.91 29.9 0   0
Jun 03 23:53 NE 5 10 Light Rain SCT110 74 70     87%   75 29.93 29.91 0    
Jun 03 22:53 5 10 Mostly Cloudy SCT090 BKN110 75 70     84%   76 29.94 29.93      
Jun 03 21:53 3 10 Mostly Clear FEW075 FEW090 75 70     84%   76 29.92 29.91 0 0  
Jun 03 21:15 E 3 10 Mostly Cloudy SCT016 BKN075 74 70     87%   75 29.92   0    
Jun 03 21:00 E 3 10 Light Rain FEW016 BKN075 BKN095 75 70     84%   76 29.91   0    
Jun 03 20:53 Calm 8 Light Rain FEW027 BKN080 OVC095 75 70     84%   76 29.91 29.9 0    
Jun 03 20:12 3 10 Light Rain FEW043 SCT090 OVC110 76 71     85%   77 29.91   0    
Jun 03 19:53 3 10 Light Rain BKN095 OVC110 77 71     82%   78 29.91 29.89 0    
Jun 03 19:32 6 10 Mostly Cloudy SCT026 SCT070 BKN095 77 72     84%   78 29.9   0    
Jun 03 19:26 NE 6 3 Light Rain SCT028 BKN070 OVC095 76 71     85%   77 29.9   0    
Jun 03 19:24 6 1.75 Light Rain SCT028 BKN041 OVC090 76 71     85%   77 29.9   0    
Jun 03 19:18 6 0.5 Heavy Rain and Fog BKN026 BKN041 OVC070 75 71     88%   76 29.9   0    
Jun 03 19:01 6 1.75 Heavy Rain BKN029 BKN036 OVC046 77 71     82%   78 29.9   0    
Jun 03 18:58 NE 7 2.5 Heavy Rain FEW024 BKN031 OVC048 77 71     82%   78 29.9   0    
Jun 03 18:53 NE 9 4 Light Rain FEW024 BKN029 OVC044 77 70     79%   78 29.9 29.88 0   0
Jun 03 18:49 8 3 Light Rain FEW024 BKN029 OVC044 77 70     78%   78 29.9   0    
Jun 03 17:53 10 10 Mostly Clear FEW060 83 67     59%   86 29.89 29.88      
Jun 03 16:53 7 10 Partly Cloudy FEW025 SCT055 82 67     60%   85 29.91 29.89      
Jun 03 15:53 E 7 10 Mostly Clear FEW035 FEW043 81 68     65%   84 29.93 29.91      
Jun 03 14:53 NE 9 10 Partly Cloudy FEW028 SCT048 81 69     67%   84 29.94 29.93      
Jun 03 13:55 NE 11 10 Mostly Cloudy FEW015 BKN047 BKN060 77 69     77%   78 29.96        
Jun 03 13:53 11 10 Cloudy FEW020 BKN026 OVC033 77 69     77%   78 29.96 29.94      
Jun 03 12:53 5 10 Cloudy FEW020 BKN026 OVC033 79 67     67%   80 29.97 29.96     0
Jun 03 12:26 5 10 Mostly Cloudy SCT021 BKN026 BKN032 79 69     72%   80 29.97        
Jun 03 11:53 S 5 10 Cloudy FEW017 BKN042 OVC065 80 68     67%   83 29.98 29.97 0    
Jun 03 11:44 S 5 10 Light Rain FEW019 BKN044 OVC065 79 68     69%   80 29.99   0    
Jun 03 10:53 6 10 Cloudy BKN017 OVC045 78 69     74%   79 30 29.98      
Jun 03 09:53 6 10 Mostly Cloudy SCT013 BKN026 BKN038 76 68     76%   77 30 29.98      
Jun 03 09:07 7 10 Mostly Cloudy SCT009 BKN028 BKN048 74 68     82%   75 30        
Jun 03 08:53 E 8 10 Mostly Cloudy FEW010 SCT040 BKN050 74 68     82%   75 30 29.98      
Jun 03 07:53 7 10 Partly Cloudy FEW006 SCT055 72 67     84%   73 29.99 29.98      
Jun 03 07:10 E 3 10 Partly Cloudy FEW007 FEW014 SCT050 71 67     87%   72 29.99        
Jun 03 06:53 E 3 10 Partly Cloudy SCT050 70 67     90%     29.99 29.97      
Jun 03 05:53 E 6 10 Clear CLR 70 66     87%     29.97 29.96      
Jun 03 04:53 5 10 Mostly Clear FEW037 70 66     87%     29.97 29.96      
Jun 03 03:53 5 10 Clear CLR 70 66     87%     29.96 29.94      
Jun 03 02:53 E 3 10 Clear CLR 70 66     87%     29.97 29.95      
Jun 03 01:53 NE 6 10 Clear CLR 71 66     84%   72 29.96 29.94      
Jun 03 00:53 3 10 Clear CLR 72 66     82%   73 29.97 29.96      
Jun 02 23:53 5 10 Clear CLR 72 66     82%   73 29.98 29.96      
Jun 02 22:53 E 3 10 Clear CLR 73 66     79%   74 29.98 29.96      
Jun 02 21:53 E 7 10 Clear CLR 74 64     71%   74 29.96 29.95      
Jun 02 20:53 E 6 10 Mostly Clear FEW060 76 65     69%   76 29.96 29.94      
Jun 02 19:53 E 9 10 Clear CLR 79 65     62%   80 29.95 29.93      
Jun 02 18:53 E 6 10 Clear CLR 81 63     54%   82 29.94 29.92      
Jun 02 17:53 8 10 Partly Cloudy FEW046 SCT065 82 63     53%   83 29.95 29.93      
Jun 02 16:53 E 9 10 Mostly Clear FEW041 84 64     51%   85 29.96 29.94      
Jun 02 15:53 E 9 10 Partly Cloudy SCT040 84 63     49%   85 29.97 29.95      
Jun 02 14:53 E 10 10 Partly Cloudy SCT036 82 62     51%   83 29.99 29.97      
Jun 02 13:53 7 10 Mostly Cloudy SCT033 BKN040 BKN050 80 64     58%   82 30.01 29.99      
Jun 02 13:04 E 8 10 Mostly Cloudy SCT028 BKN035 BKN060 79 63     58%   79 30.03        
Jun 02 12:53 E 10 10 Cloudy BKN027 BKN037 OVC060 78 63     60%   78 30.04 30.02      
Jun 02 11:53 10 10 Mostly Cloudy SCT024 BKN039 BKN046 77 63     62%   77 30.05 30.04      
Jun 02 10:53 7 10 Mostly Cloudy SCT019 SCT024 BKN033 76 64     67%   76 30.06 30.04      
Jun 02 10:45 E 13 10 Partly Cloudy SCT021 77 65     66%   78 30.05        
Jun 02 09:53 E 9 10 Mostly Cloudy BKN014 72 64     76%   72 30.06 30.05      
Jun 02 09:21 E 10 10 Mostly Cloudy BKN010 BKN014 72 64     76%   72 30.05        
Jun 02 08:53 E 10 10 Mostly Cloudy BKN007 71 65     81%   72 30.05 30.04      
Jun 02 08:19 6 6 Haze BKN005 69 64     84%     30.05        
Jun 02 08:00 E 7 10 Mostly Cloudy BKN004 69 64     84%     30.04        
Jun 02 07:53 7 2 Fog/Mist BKN004 BKN019 68 64     87%     30.04 30.03      
Jun 02 07:20 E 7 1.5 Fog/Mist OVC002 67 64     90%     30.04        
Jun 02 06:53 E 8 0.5 Fog OVC002 66 63     90%     30.04 30.03      
Jun 02 05:53 6 0.5 Fog OVC002 65 62     90%     30.02 30.01      
Jun 02 05:38 6 0.5 Fog OVC002 65 62     90%     30.02        
Jun 02 04:53 E 3 7 Cloudy OVC003 67 64     90%     30.02 30      
Jun 02 04:18 E 7 7 Mostly Cloudy BKN002 66 63     90%     30.01        
Jun 02 04:02 E 6 8 Partly Cloudy SCT002 66 63     90%     30.01        
Jun 02 03:53 8 7 Mostly Cloudy BKN002 65 63     93%     30 29.99      
Jun 02 03:49 8 8 Partly Cloudy SCT002 64 63     94%     30        
Jun 02 02:53 E 3 10 Clear CLR 65 62     90%     30.01 30      
Jun 02 01:53 3 10 Clear CLR 67 62     84%     30.02 30.01      
Jun 02 00:53 Calm 10 Clear CLR 67 62     84%     30.02 30      
Jun 01 23:53 NE 5 10 Clear CLR 68 61     78%     30.02 30      
Jun 01 22:53 Calm 10 Clear CLR 70 62     76%     30.02 30      
Jun 01 21:53 E 3 10 Clear CLR 71 61     70%   71 30.01 30      
Jun 01 20:53 E 3 10 Clear CLR 71 61     70%   71 29.99 29.98      
Jun 01 19:53 E 3 10 Clear CLR 75 61     62%   75 29.99 29.98      
Jun 01 18:53 5 10 Clear CLR 76 60     58%   76 30 29.98      
Jun 01 17:53 7 10 Clear CLR 77 60     56%   77 30.01 30      
Jun 01 16:53 SE 8 10 Mostly Clear FEW038 84 63     49%   85 30.01 29.99      
Jun 01 15:53 9 10 Clear CLR 83 61     48%   83 30 29.98      
Jun 01 13:53 E 8 10 Clear CLR 83 62     49%   84 30.03 30.01      
Jun 01 12:53 5 10 Mostly Clear FEW036 84 65     53%   86 30.04 30.02      
Jun 01 11:53 E 8 10 Clear CLR 83 64     53%   84 30.05 30.03      
Jun 01 10:53 3 10 Clear CLR 81 65     58%   83 30.06 30.04      
Jun 01 09:53 E 5 10 Clear CLR 79 65     62%   80 30.07 30.05      
Jun 01 08:53 7 10 Clear CLR 74 64     71%   74 30.08 30.07      
Jun 01 07:53 6 10 Clear CLR 70 65     84%     30.07 30.06      
Jun 01 06:53 7 10 Clear CLR 70 64     81%     30.05 30.03      
Jun 01 05:53 E 3 10 Clear CLR 70 64     81%     30.03 30.01      
Jun 01 04:53 5 10 Clear CLR 69 64     84%     30.03 30.01      
Jun 01 03:53 NE 7 10 Clear CLR 70 64     81%     30.02 30      
Jun 01 02:53 E 5 10 Clear CLR 72 64     76%   72 30.02 30      
Jun 01 01:53 Calm 10 Clear CLR 73 64     73%   73 30.04 30.02      
Jun 01 00:53 E 5 10 Clear CLR 73 63     71%   73 30.04 30.02      
May 31 23:53 Calm 10 Clear CLR 75 61     62%   75 30.05 30.03      
May 31 22:53 S 6 10 Clear CLR 78 59     52%   78 30.07 30.05      
May 31 20:53 E 10 10 Mostly Cloudy SCT080 BKN100 81 63     54%   82 30.02 30.01      
May 31 19:53 6 10 Clear CLR 83 61     48%   83 29.99 29.98      
May 31 18:53 7 10 Clear CLR 86 59     40%   85 29.98 29.97      
May 31 17:53 E 6 10 Clear CLR 88 57     35%   87 29.99 29.97      
May 31 16:53 SE 6 10 Clear CLR 90 55     31%   88 29.99 29.97      
May 31 15:53 5 10 Mostly Clear FEW080 90 53     29%   88 30 29.98      
May 31 14:53 5 10 Mostly Cloudy BKN060 90 57     33%   89 30.02 30.01      
May 31 13:53 SE 5 10 Clear CLR 87 59     39%   86 30.05 30.03      
May 31 12:53 Calm 10 Clear   86 59     40%   85 30.06 30.05      
May 31 10:53 Calm 10 Clear CLR 81 61     51%   82 30.09 30.07      
May 31 09:53 Calm 10 Clear CLR 78 63     60%   78 30.09 30.08      
May 31 08:53 Calm 10 Clear CLR 73 62     68%   73 30.1 30.08      
May 31 07:53 NE 6 10 Clear CLR 70 62     76%     30.09 30.08      
May 31 06:53 3 10 Clear CLR 67 63     87%     30.09 30.07      
May 31 05:53 E 3 10 Clear CLR 66 62     87%     30.07 30.05      
May 31 04:53 3 10 Clear CLR 66 63     90%     30.06 30.04      
May 31 03:53 NE 3 10 Clear CLR 67 62     84%     30.05 30.04      
May 31 02:53 NE 6 10 Clear CLR 68 62     81%     30.05 30.03      
May 31 00:53 5 10 Clear CLR 70 64     81%     30.04 30.03      
May 30 23:53 NE 7 10 Clear CLR 70 64     81%     30.05 30.03      
May 30 22:53 5 10 Clear CLR 73 62     68%   73 30.04 30.03      
May 30 21:53 Calm 10 Clear CLR 76 60     58%   76 30.03 30.01      
May 30 20:53 Calm 10 Clear CLR 82 56     41%   82 30.02 30      
May 30 19:53 6 10 Clear CLR 84 56     38%   83 30.01 29.99      
May 30 18:53 3 10 Clear CLR 86 56     36%   85 30 29.98      
May 30 17:53 6 10 Clear CLR 87 55     34%   85 30.02 30      
May 30 16:53 NNW 8 10 Clear CLR 88 52     29%   86 30.02 30.01      
May 30 15:53 9 10 Clear CLR 89 54     30%   87 30.03 30.02      
May 30 14:53 9 10 Clear CLR 87 56     35%   86 30.05 30.04      
May 30 13:53 6 10 Partly Cloudy SCT095 86 53     32%   84 30.07 30.05      
May 30 12:53 6 10 Mostly Cloudy BKN095 85 53     34%   83 30.08 30.07      
May 30 11:53 W 8 10 Mostly Clear FEW090 84 55     37%   83 30.1 30.08      
May 30 10:53 W 7 10 Clear   81 57     44%   81 30.1 30.09      
May 30 09:53 Calm 10 Clear CLR 76 58     54%   76 30.11 30.09      
May 30 08:53 NE 3 10 Clear CLR 73 60     64%   73 30.11 30.1      
May 30 06:53 3 10 Clear CLR 64 59     84%     30.09 30.07      
May 30 05:53 3 10 Clear CLR 63 58     84%     30.08 30.06      
May 30 04:53 3 10 Clear CLR 63 59     87%     30.06 30.04      
May 30 03:53 Calm 10 Clear CLR 65 60     84%     30.05 30.04      
May 30 02:53 NE 3 10 Clear CLR 66 60     81%     30.05 30.03      
May 30 01:53 Calm 10 Clear CLR 66 58     75%     30.05 30.03      
May 30 00:53 3 10 Clear CLR 70 57     63%     30.05 30.03      
May 29 23:53 Calm 10 Clear CLR 70 58     66%     30.03 30.02      
May 29 22:53 Calm 10 Clear   72 57     59%   72 30.02 30.01      
May 29 21:53 Calm 10 Clear CLR 74 58     57%   74 30 29.99      
May 29 20:53 S 5 10 Clear CLR 77 55     47%   77 29.99 29.98      
May 29 19:53 S 5 10 Clear CLR 81 53     38%   80 29.98 29.96      
May 29 18:53 6 10 Clear CLR 86 48     27%   83 29.97 29.95      
May 29 17:53 8 10 Clear CLR 87 51     29%   85 29.97 29.95      
May 29 16:53 6 10 Clear CLR 88 50     27%   85 29.99 29.98